Location: Champs
(48.8539°N, 2.6040°E)
Time: 05:54:36
(UTC+00:00)

Cosmos 1674 - Pass Details

Date: 26 October 2021
Orbit: 492 x 514 km, 82.5° (Epoch: 04 December)

Event Time Altitude Azimuth Distance (km) Brightness Sun altitude
Exits shadow 04:57:49 20° 315° (NW) 1,196 4.1 -15.2°
Drops below altitude 10° 04:59:49 10° 344° (NNW) 1,725 5.2 -14.9°
Sets 05:02:16 0° 359° (N) 2,620 6.3 -14.5°
